Погода в Тамбовке

Россия / Астраханская область     47°18′48″N   47°23′13″E
темп.,
°C
ветер,
м/с
пор.,
м/с
влажн.,
%
обл.,
%
осадки,
мм/ч
давл.,
гПа
погр.,
м
18 августа, чт
чт1801:00+25юв513532 0.0 1010297
04:00+24юв5115441 0.0 1010204
07:00+26юв61545100 0.0 1010384
10:00+35ююв10131842 0.0 10101416
13:00+38ююв11141473 0.0 10092523
16:00+37ююв11121694 0.0 10092441
19:00+33ююв8101735 0.0 10091104
22:00+27юв51126100 0.0 1010207
19 августа, пт
пт1901:00+25вюв51234100 0.0 1010247
04:00+24вюв5124494 0.0 1010228
07:00+26вюв61344100 0.0 1011382
10:00+32юв91220100 0.0 10121227
13:00+35юв121412100 0.0 10122579
16:00+34юв121416100 0.0 10132558
19:00+30вюв101523100 0.0 10141253
22:00+28в121925100 0.0 10161285
20 августа, сб
сб2001:00+27вюв121825100 0.0 10181123
04:00+25вюв111729100 0.0 1019862
07:00+24вюв11163399 0.0 1020901
10:00+27вюв12142586 0.0 10201091
13:00+29вюв111322100 0.0 10201391
16:00+29вюв11121999 0.0 10201539
19:00+26вюв91223100 0.0 10211217
22:00+23в81520100 0.0 1021514
21 августа, вс
вс2101:00+23в8161796 0.0 1020537
04:00+22в7162390 0.0 1020435
07:00+22в71433100 0.0 1020506
10:00+28вюв9112068 0.0 10201667
13:00+31вюв9111660 0.0 10192332
16:00+31вюв10112236 0.0 10182203
19:00+28вюв8102868 0.0 10191560
22:00+23в5113742 0.0 1019243
22 августа, пн
пн2201:00+22в512354 0.0 1018198
04:00+21в512341 0.0 1018203
07:00+22в613322 0.0 1019312
10:00+30вюв810200 0.0 10191849
13:00+33вюв810180 0.0 10183067
16:00+35вюв89162 0.0 10173502
19:00+32юв710212 0.0 1017682
22:00+25юв47340 0.0 101887